Location: Newark
(19.4083°N, 89.7712°W)
Time: 18:41:14
(UTC+00:00)

Tiangong 2 - Visible Passes

Search period start: 19 July 2019 00:00
Search period end: 29 July 2019 00:00
Orbit: 185 x 376 km, 42.8° (Epoch: 19 July)

Date Brightness Start Highest point End Pass type
(mag) Time Alt. Az. Time Alt. Az. Time Alt. Az.
24 Jul 3.6 02:11:47 10° N 02:12:51 13° NNE 02:12:51 13° NNE visible
25 Jul 2.8 02:10:17 10° NNW 02:12:13 23° NNE 02:12:13 23° NNE visible
26 Jul 1.8 02:08:54 10° NW 02:11:16 46° NNW 02:11:16 46° NNW visible
27 Jul 1.7 02:07:28 10° WNW 02:10:01 48° WSW 02:10:01 48° WSW visible
28 Jul 2.8 02:06:04 10° W 02:08:27 22° SW 02:08:28 22° SW visible
